Flight Track Log - Related Links

Times and Time Zones

All times are in EDT time to prevent confusion due to time zone crossing. See the EGF2745 flight status page for this flight to view local times or setup timezone preferences in your user account.

Time Position Orientation Groundspeed Altitude Reporting Facility
EDT Latitude Longitude Course Direction KTS MPH feet Rate Location/Type
Tue 08:39:44 AM 39.0500 -84.6667 351° North 159 183 1,300  Level Cincinnati TRACON
Tue 08:41:02 AM 39.0167 -84.7500 243° Southwest 234 269 4,400 2,136 Climbing Cincinnati TRACON
Tue 08:41:56 AM 39.0333 -84.8333 284° West 266 306 6,000 1,200 Climbing Cincinnati TRACON
Tue 08:42:00 AM 38.9210 -84.7905 308° West  Level FlightAware Approximate
Tue 08:43:00 AM 38.9841 -84.8725 345° North  Level FlightAware Approximate
Tue 08:43:12 AM 39.0853 -84.9236 307° West 267 307 7,000  Level Indianapolis Center
Tue 08:44:00 AM 39.0751 -84.8950 351° North  Level FlightAware Approximate
Tue 08:44:14 AM 39.1614 -84.9456 347° North 280 322 9,700  Level Indianapolis Center
Tue 08:45:00 AM 39.1689 -84.9138 351° North  Level FlightAware Approximate
Tue 08:45:16 AM 39.2433 -84.9603 352° North 296 341 11,800  Level Indianapolis Center
Tue 08:46:17 AM 39.3456 -85.0039 342° North 325 374 14,300 2,049 Climbing Indianapolis Center
Tue 08:47:19 AM 39.4300 -85.0533 336° Northwest 332 382 16,000 1,548 Climbing Indianapolis Center
Tue 08:48:21 AM 39.5181 -85.1047 336° Northwest 344 396 17,500 1,258 Climbing Indianapolis Center
Tue 08:49:23 AM 39.6103 -85.1581 336° Northwest 360 414 18,600 1,065 Climbing Indianapolis Center
Tue 08:50:25 AM 39.7039 -85.2122 336° Northwest 367 422 19,700 1,016 Climbing Indianapolis Center
Tue 08:51:27 AM 39.7992 -85.2697 335° Northwest 375 432 20,700 1,073 Climbing Indianapolis Center
Tue 08:52:28 AM 39.9219 -85.3397 336° Northwest 400 460 21,900 634 Climbing Indianapolis Center
Tue 08:53:30 AM 40.0286 -85.4047 335° Northwest 418 481 22,000 48 Climbing Indianapolis Center
Tue 08:54:32 AM 40.1425 -85.4717 336° Northwest 443 510 22,000  Level Indianapolis Center
Tue 08:55:34 AM 40.2331 -85.5847 316° Northwest 458 527 22,000  Level Indianapolis Center
Tue 08:56:36 AM 40.3172 -85.7033 313° West 450 518 22,000  Level Indianapolis Center
Tue 08:57:38 AM 40.4186 -85.8436 314° West 447 514 22,000  Level Indianapolis Center
Tue 08:58:39 AM 40.5031 -85.9617 313° West 447 514 22,000  Level Indianapolis Center
Tue 08:59:41 AM 40.5889 -86.0817 313° West 452 520 22,000  Level Indianapolis Center
Tue 09:00:43 AM 40.6736 -86.2014 313° West 450 518 22,000  Level Indianapolis Center
Tue 09:01:45 AM 40.7586 -86.3219 313° West 451 519 22,000 -677 Level Indianapolis Center
Tue 09:02:47 AM 40.8419 -86.4406 313° West 445 512 20,600 -1,694 Descending Indianapolis Center
Tue 09:03:49 AM 40.9392 -86.5800 313° West 431 496 18,500 -1,694 Descending Indianapolis Center
Tue 09:04:51 AM 41.0142 -86.6847 314° West 400 460 17,100 -1,500 Descending Indianapolis Center
Tue 09:05:53 AM 41.0856 -86.7922 311° West 391 450 15,400 -1,548 Descending Indianapolis Center
Tue 09:06:55 AM 41.1583 -86.8964 313° West 389 448 13,900 -1,452 Descending Indianapolis Center
Tue 09:07:57 AM 41.2278 -86.9967 313° West 380 437 12,400 -1,306 Descending Indianapolis Center
Tue 09:08:59 AM 41.3108 -87.1175 312° West 374 430 11,200 -553 Descending Indianapolis Center
Tue 09:10:29 AM 41.4158 -87.2544 316° Northwest 368 423 11,000 -133 Descending Chicago Center

Login

Don't have an account? Register now (free) for customized features, flight alerts, and more!